Regional Weather Roundup
Issued by NWS Newport/Morehead, NC

Current Version | Previous Version | Text Only | Print | Product List | Glossary On
Versions: 1 2 3 4 5 6 7 8 9 10 11 12 13 14 15 16 17 18 19 20 21 22 23 24 25 26 27 28 29 30 31 32 33 34 35 36 37 38 39 40 41 42 43 44 45 46 47 48 49 50
000
ASUS42 KMHX 280425
RWRMHX
WEATHER ROUNDUP FOR EASTERN NORTH CAROLINA
NATIONAL WEATHER SERVICE NEWPORT/MOREHEAD CITY NC
1200 AM EDT SAT MAY 28 2016

NOTE: "FAIR" INDICATES FEW OR NO CLOUDS BELOW 12,000 FEET
WITH NO SIGNIFICANT WEATHER AND/OR OBSTRUCTIONS TO VISIBILITY

NCZ015>017-031-032-045>047-102-103-280500-
NORTH COAST

CITY           SKY/WX    TMP DP  RH WIND       PRES   REMARKS
EDENTON        CLEAR    N/A N/A N/A S5        30.17S
ELIZABETH CITY CLEAR     69  64  84 SE5       30.17R
KITTY HAWK     CLEAR     66  61  84 CALM      30.17R
MANTEO         NOT AVBL

$$

NCZ045>047-081-094-103-104-280500-
CENTRAL COAST

CITY           SKY/WX    TMP DP  RH WIND       PRES   REMARKS
FRISCO         MOCLDY    70  65  84 CALM      30.16S

$$

NCZ095-097-098-100-101-280500-
SOUTHERN COAST

CITY           SKY/WX    TMP DP  RH WIND       PRES   REMARKS
BEAUFORT       PTCLDY    69  65  86 CALM      30.14F
CEDAR ISLAND   NOT AVBL
JACKSONVILLE   CLOUDY    71  64  78 E6        30.14S
PINEY ISLAND   CLOUDY   N/A N/A N/A E6        30.15F
WILMINGTON     PTCLDY    68  65  90 N3        30.14R


$$

NCZ011>013-027>030-043-044-078>080-089-090>093-098-280500-
COASTAL PLAIN

CITY           SKY/WX    TMP DP  RH WIND       PRES   REMARKS
AHOSKIE        CLEAR     66  61  82 S3        30.17R
CLINTON        CLEAR     64  62  92 CALM      30.15S
ELIZABETHTOWN  CLEAR     64  61  88 CALM      30.14S
GOLDSBORO      CLEAR     65  62  91 E2        30.14R
GREENVILLE     CLEAR     64  59  82 CALM      30.18R
HAVELOCK       CLOUDY    67  61  81 E3        30.16S
KENANSVILLE    CLEAR     59  57  94 CALM      30.16S
KINSTON        CLEAR     63  60  90 CALM      30.16S
NEW BERN       CLEAR     61  58  90 CALM      30.16S
RICHLANDS      CLOUDY    61  60  97 N3        30.16R
ROCKY MOUNT    CLEAR     66  58  75 CALM      30.16R
WASHINGTON     CLEAR     63  61  92 N3        30.16S
WHITEVILLE     CLEAR     64  61  90 CALM      30.13S

$$

AMZ130-135-150-152-154-156-158-170-250-252-270-ANZ085-086-088-633-658-670-280500-
MARINE OBSERVATIONS

STATION/POSITION TIME  TEMP    WIND        PRES    WAVE   SWELL
                       AIR SEA DIR/SP/G            HT/PER HT/PER
                 (UTC) (F)     (DEG/KT/KT) (MB)    (FT/S) (FT/S)
CHESAPEAKE LIGHT 0400   70     170/ 19/ 20 1021.4
64 E VA BEACH    0350   67 63  170/  8/  8 1021.7    2/ 8   2/ 8
DUCK             0400   68 59  150/  8/  8 1021.1
2 E DUCK         0311      63                N/A     2/ 7
OREGON INLET     0400   69 78  140/  4/  5 1021.6
13E OREGON INLT  0400      69                N/A     3/ 7   3/ 7
HATTERAS CG      0400   74 74  110/  1/  3 1020.9
DIAMOND BUOY     0350   77 78  120/ 10/ 12 1021.0    3/ 8   3/ 8
CAPE LOOKOUT     0400   74      90/  7/  7 1020.5
BEAUFORT LAB     0400   74 73   90/  3/  6 1020.0
30 SE NEW RVR IN 0325      75                N/A     3/ 6
27 SE WRIGHTSVLE 0408   76 74  100/  8/ 12 1019.8
5 SE WRIGHTSVLE  0408   75 74   90/  8/ 10 1020.8
225 S CAPE HAT   0350   77 77   90/ 17/ 21 1017.9    7/ 8   5/ 8
41 SE CHARLESTON 0350   77 76   90/ 10/ 12 1018.2    4/ 8   3/ 8

$$




USA.gov is the U.S. government's official web portal to all federal, state and local government web resources and services.